This is the latest recevied weather packets stored in our database for station/object 4S6DRJ-13. If no packets are shown the sender has not sent any weather packets the latest 10 day(s).
| Time | Temp. | Humidity | Pressure | Rain* | Wind** | Luminosity | Snow |
|---|---|---|---|---|---|---|---|
| 1788123151 | 27.78° C | 84% | 1009.3 hPa | 0 mm | 0.89 m/s, 262° | 0 W/m² | - |
| 1788123090 | 27.78° C | 84% | 1009.2 hPa | 0 mm | 1.79 m/s, 220° | 0 W/m² | - |
| 1788123029 | 27.78° C | 84% | 1009.2 hPa | 0 mm | 1.79 m/s, 322° | 0 W/m² | - |
| 1788122968 | 27.78° C | 84% | 1009.3 hPa | 0 mm | 1.34 m/s, 140° | 0 W/m² | - |
| 1788122907 | 27.78° C | 84% | 1009.3 hPa | 0 mm | 0.89 m/s, 255° | 0 W/m² | - |
| 1788122846 | 27.78° C | 84% | 1009.5 hPa | 0 mm | 0 m/s | 0 W/m² | - |
| 1788122785 | 27.78° C | 84% | 1009.2 hPa | 0 mm | 0.45 m/s, 222° | 0 W/m² | - |
| 1788122724 | 27.78° C | 84% | 1009.1 hPa | 0 mm | 1.34 m/s, 267° | 0 W/m² | - |
| 1788122663 | 27.78° C | 84% | 1009.2 hPa | 0 mm | 0.89 m/s, 249° | 0 W/m² | - |
| 1788122541 | 27.78° C | 84% | 1009.4 hPa | 0 mm | 1.79 m/s, 168° | 0 W/m² | - |
| 1788122480 | 27.78° C | 84% | 1009.1 hPa | 0 mm | 2.68 m/s, 196° | 0 W/m² | - |
| 1788122419 | 27.78° C | 84% | 1009.2 hPa | 0 mm | 1.79 m/s, 219° | 0 W/m² | - |
| 1788122358 | 27.78° C | 84% | 1009.2 hPa | 0 mm | 1.34 m/s, 238° | 0 W/m² | - |
| 1788122297 | 27.78° C | 84% | 1009.3 hPa | 0 mm | 1.79 m/s, 102° | 0 W/m² | - |
| 1788122236 | 27.78° C | 84% | 1009.4 hPa | 0 mm | 2.24 m/s, 195° | 0 W/m² | - |
| 1788122175 | 27.78° C | 84% | 1009.4 hPa | 0 mm | 0.89 m/s, 281° | 0 W/m² | - |
| 1788122114 | 27.78° C | 84% | 1009.4 hPa | 0 mm | 1.34 m/s, 326° | 0 W/m² | - |
| 1788122053 | 27.78° C | 84% | 1009.3 hPa | 0 mm | 1.79 m/s, 229° | 0 W/m² | - |
| 1788121992 | 27.78° C | 84% | 1009.2 hPa | 0 mm | 1.79 m/s, 284° | 0 W/m² | - |
| 1788121931 | 27.78° C | 84% | 1009.3 hPa | 0 mm | 0.45 m/s, 264° | 0 W/m² | - |
| 1788121870 | 27.78° C | 84% | 1009.5 hPa | 0 mm | 0.89 m/s, 297° | 0 W/m² | - |
| 1788121809 | 27.78° C | 84% | 1009.4 hPa | 0 mm | 0.89 m/s, 144° | 0 W/m² | - |
| 1788121749 | 27.78° C | 84% | 1009.3 hPa | 0 mm | 0.45 m/s, 261° | 0 W/m² | - |
| 1788121687 | 27.78° C | 84% | 1009.3 hPa | 0 mm | 0.45 m/s, 255° | 0 W/m² | - |
| 1788121626 | 27.78° C | 84% | 1009.3 hPa | 0 mm | 1.79 m/s, 259° | 0 W/m² | - |
* Rain latest hour (hover to see other rain measurements)
** Current wind speed in m/s (hover to see current wind gust speed)